Theta_e
308 308 309 309 309 309 310 310 310 310 311 311 311 312 312 312 313 313 314 314 315 315 315 315 316 316 316 317 324 328 330 326 323 326 326 323 321 324 326 326 326 328 328 329 329 330 338
308 308 308 308 309 309 309 310 310 310 310 310 311 311 312 312 313 313 314 314 315 315 315 315 315 316 316 316 327 331 329 327 322 320 320 320 322 327 326 326 325 327 327 327 333 339 339
307 307 308 308 308 308 309 309 309 310 310 310 311 311 312 312 313 313 314 315 315 315 315 315 315 315 316 319 320 327 329 326 326 325 324 324 325 325 326 325 326 326 330 330 333 337 340
305 306 306 306 307 308 308 308 309 309 310 310 310 311 311 312 312 313 314 314 315 315 316 315 315 315 316 319 320 323 325 323 325 326 326 326 326 324 326 326 323 328 329 330 330 332 338
304 304 305 305 306 306 307 307 308 309 309 309 310 311 311 312 312 313 314 314 315 316 316 316 315 316 318 321 322 323 323 323 323 324 325 325 325 324 324 320 318 320 326 331 332 332 333
303 303 304 304 304 304 305 305 306 307 308 309 309 310 311 312 312 313 314 314 316 319 323 319 318 317 318 321 323 324 324 324 323 323 324 325 324 319 316 316 319 323 328 330 330 332 332
303 303 303 303 303 303 303 304 305 305 306 308 308 309 311 311 312 313 314 321 321 322 320 321 321 319 321 321 321 324 323 324 324 321 321 322 320 321 320 318 320 322 323 323 325 327 331
302 303 303 303 303 303 303 303 304 304 305 306 307 308 310 311 312 312 313 317 316 315 316 319 320 320 323 323 321 324 324 323 323 322 321 319 318 319 321 321 321 320 321 321 322 328 333
301 302 302 303 303 302 303 303 303 303 304 304 305 307 309 310 312 312 313 317 316 317 316 318 319 319 320 320 321 324 324 323 321 321 321 319 320 322 322 322 322 320 321 322 324 330 330
300 301 302 302 302 302 302 303 303 303 303 304 305 306 307 310 311 312 316 317 316 318 312 316 318 320 320 319 321 323 324 323 320 319 319 320 321 322 322 321 320 319 321 326 332 330 326
300 300 301 302 302 302 302 302 303 303 303 303 304 305 306 307 309 311 316 317 318 318 313 317 320 321 320 320 322 322 323 323 319 321 320 320 322 322 322 322 321 321 322 328 327 324 322
301 300 300 301 302 302 302 302 302 303 303 303 304 304 305 306 308 310 316 317 318 315 315 318 321 319 318 319 320 322 321 323 322 320 320 320 322 323 321 323 322 322 320 318 318 318 321
303 301 300 301 301 301 302 302 302 303 303 304 304 304 305 306 308 313 316 317 313 315 316 318 319 318 317 317 318 320 319 318 317 318 318 320 321 322 324 324 321 318 315 316 319 320 321
304 302 301 301 301 301 301 301 302 302 303 303 305 305 306 307 307 310 314 312 315 315 316 317 318 318 320 319 318 319 318 317 317 318 317 320 320 322 324 323 323 321 316 316 320 321 322
305 302 301 301 300 301 301 301 302 302 302 304 305 306 307 308 307 308 314 311 312 315 319 318 318 319 318 318 317 318 316 316 317 317 318 318 319 321 323 323 322 322 320 316 316 317 320
305 303 302 301 300 300 301 301 302 302 302 304 305 307 308 308 309 309 310 311 313 314 316 316 318 319 318 318 320 320 317 319 319 317 318 318 320 320 322 324 322 321 318 320 316 323 323
305 305 302 301 301 300 301 301 302 302 302 304 306 315 314 312 309 314 310 310 313 316 316 317 318 318 318 319 319 319 321 323 322 321 317 316 317 322 323 322 322 320 319 318 316 318 321
308 308 306 301 301 300 301 301 301 302 302 304 307 314 315 313 311 308 309 311 315 315 317 316 317 316 316 317 319 319 322 323 324 322 319 316 315 318 319 320 322 320 320 318 319 320 322
310 309 307 303 301 300 301 301 301 301 302 303 306 312 315 312 310 309 309 312 314 313 313 315 318 318 318 317 318 319 321 322 324 326 326 319 316 318 318 318 320 327 324 319 316 316 325
309 309 309 304 301 300 301 301 302 301 301 303 308 318 318 315 312 310 312 312 313 316 315 316 316 317 316 317 316 318 319 321 321 325 326 321 316 317 318 319 322 327 327 324 321 323 323
313 310 310 307 301 300 301 301 302 301 301 304 309 313 317 314 313 312 311 313 313 313 317 316 316 316 317 317 317 317 320 319 320 323 325 320 318 323 322 323 324 326 326 325 326 323 327
314 311 310 308 301 300 301 301 301 301 302 310 310 316 315 316 316 314 312 312 314 315 316 319 317 317 316 316 317 322 323 320 321 320 320 322 327 323 323 325 327 327 326 327 328 327 328
314 313 311 309 301 300 301 300 301 301 302 312 315 314 314 315 315 314 313 316 317 317 319 320 320 318 321 323 323 323 324 323 321 322 321 325 323 327 328 325 326 321 325 327 329 330 329
314 313 312 310 304 301 301 299 301 300 301 306 312 313 314 314 314 316 316 315 317 318 317 319 320 322 324 324 323 322 320 321 320 320 320 320 320 327 330 325 326 321 326 328 334 339 337
313 312 312 311 305 301 301 299 300 300 300 302 312 311 312 312 315 315 315 315 318 319 320 321 323 323 324 322 318 317 317 317 319 319 318 316 319 320 326 326 326 330 333 333 333 332 337
313 312 311 310 305 302 301 299 299 300 300 301 312 309 310 312 313 315 313 315 315 315 318 321 323 326 323 316 320 320 319 320 320 319 312 316 315 318 324 324 327 329 339 338 334 333 333
313 312 311 310 308 302 301 300 298 300 300 300 313 311 307 311 312 313 311 312 314 315 316 316 318 326 325 317 321 322 321 320 321 319 318 315 316 320 322 323 326 333 333 337 336 329 330
313 312 311 311 309 303 302 300 298 299 300 300 311 311 310 309 308 311 312 310 312 314 313 315 320 321 321 325 321 319 322 324 325 327 330 326 329 324 322 323 327 330 333 334 328 329 332
313 311 311 311 309 303 302 300 298 299 299 300 311 311 311 310 307 309 313 310 311 311 313 318 318 319 323 320 321 321 328 325 326 331 324 330 327 328 332 329 329 330 327 325 329 332 334
Wind_Speed
7 7 7 7 8 9 10 11 12 12 13 13 14 14 14 15 15 15 15 14 13 13 13 13 15 15 12 8 6 3 3 5 8 11 13 12 11 4 2 5 13 1 6 20 26 21 21
6 8 9 9 9 10 11 12 13 14 14 15 15 16 16 16 16 16 15 14 14 14 14 13 15 15 11 6 5 5 4 6 8 8 9 11 5 5 9 5 2 11 18 21 9 4 6
10 9 9 10 10 11 12 12 13 14 15 16 16 17 18 18 18 18 17 16 15 15 14 14 14 15 16 16 6 8 9 7 6 7 8 8 10 9 6 4 7 13 7 8 5 8 6
11 11 10 11 11 12 12 13 14 15 15 16 17 18 18 19 19 20 19 17 16 16 15 15 13 14 11 9 11 14 13 10 12 12 14 13 16 14 6 6 8 6 4 6 3 3 6
10 11 12 11 12 12 13 14 14 15 16 17 17 18 18 19 20 21 19 18 16 17 15 14 11 9 12 6 10 10 15 15 10 13 15 19 9 6 3 3 5 6 4 4 10 3 4
12 12 12 12 13 13 13 14 15 15 16 17 18 18 18 18 19 20 18 17 14 12 7 8 11 7 10 3 4 8 12 16 12 16 14 3 3 3 4 5 4 4 4 4 6 5 5
13 13 13 13 13 13 14 14 15 15 16 16 17 18 18 17 17 17 15 8 5 2 11 9 11 11 16 13 12 10 5 12 17 12 4 4 4 4 11 8 4 3 6 7 16 10 6
12 14 14 14 14 14 14 15 15 15 15 17 17 17 17 16 16 13 9 4 7 11 13 13 19 25 27 26 16 14 7 7 4 4 2 5 5 9 5 5 5 6 8 13 11 13 0
12 12 13 15 15 15 15 16 16 15 15 16 17 17 17 14 14 10 6 1 9 6 5 13 16 18 28 18 20 23 12 10 5 3 3 6 9 4 4 7 5 5 6 12 12 4 4
12 12 12 13 14 16 16 16 17 16 16 16 16 17 16 13 8 8 5 3 5 2 4 8 6 11 16 17 8 24 23 17 2 9 6 6 7 7 5 7 6 6 11 9 5 4 3
15 12 13 13 13 15 16 17 17 17 16 16 16 16 15 12 10 6 6 4 1 1 3 5 5 2 9 16 21 8 27 22 9 6 6 10 4 3 5 8 5 10 4 7 2 3 2
13 16 13 14 14 15 16 17 18 18 18 17 16 16 16 14 14 8 7 2 3 5 7 7 3 2 5 6 8 3 6 16 11 5 3 9 4 4 7 6 5 3 5 6 4 3 2
17 15 16 13 15 15 16 17 18 19 19 18 17 16 18 16 7 6 5 4 4 4 5 6 3 3 2 3 2 5 5 5 6 3 5 5 6 4 4 5 3 7 7 4 4 5 5
17 17 15 16 15 17 17 18 18 19 20 20 18 18 18 18 12 10 5 4 4 5 7 6 5 6 2 2 4 4 4 4 4 4 3 5 8 4 4 5 4 1 7 6 4 3 5
17 16 16 17 15 16 17 19 19 18 20 21 19 17 18 11 14 13 8 3 8 7 3 6 8 5 7 6 4 2 6 6 8 10 9 6 7 5 6 4 6 2 3 6 7 3 3
14 16 16 15 16 16 17 17 20 18 19 19 19 17 13 10 14 18 4 5 4 5 5 5 2 3 6 6 6 5 5 3 5 9 3 7 3 6 5 2 1 5 6 3 3 3 3
13 16 15 15 15 16 17 17 19 18 17 16 16 9 1 9 19 12 4 6 5 22 3 2 2 3 5 4 2 3 4 2 2 5 10 6 4 9 3 4 5 2 1 6 6 4 6
17 14 15 15 16 15 16 16 17 18 15 14 6 2 9 16 5 2 4 6 6 9 5 6 4 8 7 6 2 2 1 1 14 4 4 5 6 7 11 5 3 3 4 6 5 5 1
19 16 13 13 16 15 15 15 15 17 16 17 11 4 12 18 3 2 4 4 7 5 8 5 4 4 2 6 3 3 3 3 13 7 1 4 1 2 10 7 4 1 2 5 5 3 5
18 17 16 13 13 15 14 14 13 14 13 15 5 2 5 12 6 5 0 5 5 9 12 10 7 3 2 1 4 1 4 2 10 10 9 5 3 5 7 7 2 5 3 4 5 3 4
20 17 18 14 13 14 13 13 11 13 11 10 3 2 1 2 7 4 5 3 4 4 5 10 4 7 6 4 1 3 2 5 5 11 7 4 3 2 4 3 3 2 4 6 4 5 5
21 19 17 16 13 12 12 11 10 10 10 2 2 4 5 5 9 3 5 4 8 10 6 3 3 3 4 5 6 3 2 0 3 5 5 5 1 4 1 1 3 3 4 2 5 4 3
21 20 17 15 12 11 10 9 9 6 7 2 3 4 4 4 5 2 3 4 6 5 3 1 1 5 6 5 6 5 7 4 5 1 1 3 3 3 4 4 1 3 2 2 2 2 7
19 18 17 15 12 10 9 8 8 6 4 3 4 5 1 4 1 2 3 5 6 5 6 0 6 4 1 4 2 2 2 5 6 5 4 4 3 3 3 3 2 6 4 1 4 3 4
18 19 18 15 12 11 9 7 8 6 5 3 1 3 3 3 4 7 12 8 9 6 4 5 7 0 3 4 4 5 5 5 3 5 6 4 5 2 2 2 5 2 4 5 3 5 4
18 20 19 15 13 12 10 7 7 7 6 3 4 1 3 2 4 7 5 7 2 4 5 4 10 10 3 4 4 2 2 3 4 7 6 5 4 4 3 2 4 1 11 19 4 4 20
20 21 21 16 14 13 11 7 8 7 7 4 6 4 4 5 4 6 3 3 6 3 1 4 7 8 8 3 2 3 3 4 2 2 4 4 3 5 3 4 3 8 20 11 3 6 30
21 22 23 19 14 13 11 8 8 7 7 5 8 5 5 5 10 5 4 5 7 5 2 5 3 6 5 4 2 2 2 2 3 3 1 2 1 1 2 3 5 19 6 6 7 14 14
23 22 23 21 16 13 11 9 8 7 7 5 9 6 7 8 8 9 10 5 6 3 5 4 1 1 2 3 1 1 1 2 1 2 4 2 2 3 2 4 5 2 6 5 9 11 18
Wind_Direction
331 329 323 318 316 313 312 311 310 310 312 311 311 312 312 311 312 312 314 315 315 314 314 317 317 323 336 315 276 264 303 300 258 248 252 263 268 258 297 304 324 229 298 309 312 305 222
319 317 319 317 315 311 309 307 306 307 308 307 307 308 307 306 307 305 307 307 308 307 307 308 309 315 319 293 218 247 264 317 274 255 256 246 252 307 284 266 300 309 301 300 302 72 155
322 317 311 311 312 309 307 306 305 303 304 305 305 305 303 304 302 302 302 302 302 299 299 297 301 304 296 267 233 232 241 276 286 283 285 288 287 286 306 302 330 313 333 331 286 168 187
329 323 318 313 310 305 303 303 304 303 302 302 303 304 304 303 302 299 298 301 299 295 292 289 293 296 272 281 239 227 231 244 263 283 294 296 296 283 247 292 351 346 44 358 179 192 206
332 326 322 316 312 308 306 305 301 301 301 301 301 301 302 303 302 299 299 302 298 293 289 284 283 275 267 252 239 250 244 252 276 282 290 296 281 242 308 61 7 12 267 308 314 221 158
330 327 322 319 314 311 310 308 305 301 300 301 301 300 300 301 302 301 305 305 299 293 302 278 257 274 255 222 314 293 259 251 266 281 298 221 186 71 36 65 238 265 313 286 254 296 281
324 324 322 320 318 317 313 310 307 306 304 301 300 300 299 301 300 305 315 337 331 274 313 265 280 263 275 270 294 280 316 240 252 266 254 356 69 222 242 210 188 285 285 280 283 272 285
316 319 320 320 319 318 316 313 311 308 307 305 302 298 297 298 298 300 316 32 36 323 298 268 264 263 260 270 282 252 262 216 182 228 135 9 244 239 224 227 196 215 263 274 287 282 300
314 312 315 318 319 319 316 315 314 311 309 307 303 301 298 297 293 285 268 315 344 335 256 287 253 248 254 247 238 246 242 238 178 206 212 188 244 336 221 273 242 227 205 262 234 350 313
319 316 314 314 317 317 316 315 314 313 310 308 304 302 301 296 282 261 230 269 336 326 42 273 236 248 222 215 259 241 242 224 161 213 178 234 268 234 290 255 178 248 212 235 232 62 259
320 319 316 313 315 314 316 314 313 311 310 308 304 300 298 292 270 270 226 262 318 217 326 250 235 266 200 181 218 220 230 212 194 211 124 243 269 301 278 246 157 235 183 205 263 162 103
323 318 316 315 314 314 313 315 313 311 310 307 302 300 292 287 271 255 251 222 161 50 246 306 265 221 132 226 197 170 158 202 216 202 227 240 248 191 225 273 215 324 103 58 61 117 53
318 318 314 314 312 314 314 313 314 313 310 305 300 296 287 273 270 206 231 182 56 163 318 290 351 349 159 307 290 166 147 140 169 142 275 311 267 250 218 285 7 65 53 351 347 1 214
311 312 313 311 314 313 315 315 313 315 313 306 303 294 277 266 242 233 196 61 183 221 257 304 321 329 311 177 233 207 145 220 208 112 125 178 303 195 173 180 238 146 144 154 211 224 267
305 307 308 310 313 312 314 316 315 318 317 311 312 300 279 263 223 199 177 126 202 215 280 350 336 48 342 347 230 162 186 224 202 171 175 164 267 260 235 195 137 254 207 188 107 17 53
303 306 306 309 312 314 313 316 317 322 321 319 319 308 282 231 199 177 97 221 241 213 7 0 339 29 357 322 12 24 180 297 274 201 175 215 288 207 280 190 210 165 159 85 14 145 225
291 302 307 308 310 314 313 319 321 325 327 325 318 316 101 150 160 163 163 227 259 277 272 334 308 313 252 267 269 314 283 137 284 287 166 137 122 262 120 197 208 12 249 51 118 124 163
280 288 304 307 308 313 313 319 325 327 339 329 320 317 157 156 113 128 162 195 237 272 296 250 231 215 218 219 242 295 287 263 347 274 142 220 157 240 220 278 286 199 184 147 134 244 9
268 274 291 302 304 310 312 319 330 332 345 344 329 293 175 181 138 241 267 257 240 244 256 236 236 217 262 203 209 208 328 314 7 40 54 178 329 281 323 352 2 229 159 102 106 80 187
259 267 282 293 299 303 309 315 331 330 337 338 319 350 151 226 248 142 186 271 250 259 240 203 230 201 208 105 355 261 341 324 333 6 40 112 117 153 202 220 186 150 132 120 123 109 174
255 261 274 284 295 294 304 311 328 325 327 332 281 282 14 257 255 236 178 279 297 317 249 196 220 206 174 151 9 126 358 326 332 4 19 79 74 238 218 260 310 255 150 159 162 171 154
254 253 264 271 283 290 298 307 322 330 328 323 295 335 335 301 293 277 179 233 240 254 229 296 197 67 149 141 172 188 156 195 266 335 31 357 7 358 7 37 293 267 298 112 119 139 115
251 253 256 263 273 288 292 304 315 339 335 314 308 294 294 293 323 36 208 260 261 323 301 152 308 104 98 176 188 236 202 221 199 224 63 70 103 55 278 331 310 352 278 18 90 129 139
243 243 249 259 265 279 288 301 306 324 322 341 336 340 324 279 320 289 271 294 280 248 208 64 46 92 92 7 271 232 151 265 216 225 196 132 102 119 238 355 229 239 315 114 118 164 213
244 239 239 250 260 271 278 290 296 305 303 289 302 335 322 283 286 314 327 326 357 49 50 89 27 318 187 34 49 28 343 17 296 233 198 167 122 92 146 202 282 333 9 11 46 286 202
236 232 231 238 249 266 271 277 284 290 289 272 186 310 266 265 251 317 303 355 355 341 350 41 43 57 101 76 63 89 237 257 311 327 88 82 75 127 119 153 226 23 335 332 323 292 355
229 228 224 228 244 255 264 274 277 279 279 259 200 239 265 266 272 351 359 310 346 3 324 337 352 16 31 61 105 153 253 221 265 240 315 357 10 162 181 204 294 340 319 326 117 283 329
223 223 222 225 237 249 257 267 270 270 270 242 187 232 240 259 269 266 309 344 348 21 82 332 23 5 38 64 99 261 169 305 16 0 29 148 100 263 70 179 245 354 20 58 276 317 355
220 222 219 221 230 240 250 260 262 256 258 247 189 231 258 260 271 270 251 271 253 298 338 9 112 169 135 95 154 207 351 35 134 216 3 40 169 175 147 197 265 337 101 35 11 359 18